When you browse on this site, cookies collect data to enhance your experience and personalize the content and advertising you see.
Visit our Privacy Policy to learn more. By continuing to use the site, you agree to this use of cookies and data.
  • In Czech Republic
  • List of Countries
  • For 7 days
  • Water Temperature
  • Satellite Maps
  • Weather Map
  • Weather Widgets
  • user-avatar
    Login

    Hourly Weather Blagoevgrad

    Today, 17 November, Saturday

    Time Temperature Precipitation Wind Pressure Humidity
    00:00 +3°C° 0 mm 1 mps 727 mmHg 81%
    01:00 +1°C° 0 mm 2 mps 727 mmHg 81%
    02:00 +1°C° 0 mm 2 mps 727 mmHg 81%
    03:00 +1°C° 0 mm 2 mps 727 mmHg 82%
    04:00 +1°C° 0 mm 2 mps 727 mmHg 82%
    05:00 -1°C° 0 mm 2 mps 727 mmHg 83%
    06:00 -1°C° 0 mm 2 mps 727 mmHg 81%
    07:00 -1°C° 0 mm 2 mps 727 mmHg 79%
    08:00 +1°C° 0 mm 2 mps 727 mmHg 77%
    09:00 +2°C° 0 mm 2 mps 728 mmHg 68%
    10:00 +4°C° 0 mm 2 mps 728 mmHg 59%
    11:00 +6°C° 0 mm 2 mps 728 mmHg 50%
    12:00 +7°C° 0 mm 2 mps 728 mmHg 47%
    13:00 +8°C° 0 mm 2 mps 727 mmHg 45%
    14:00 +8°C° 0 mm 2 mps 727 mmHg 42%
    15:00 +7°C° 0 mm 2 mps 727 mmHg 48%
    16:00 +6°C° 0 mm 2 mps 726 mmHg 53%
    17:00 +5°C° 0 mm 2 mps 726 mmHg 59%
    18:00 +4°C° 0 mm 2 mps 726 mmHg 64%
    19:00 +3°C° 0 mm 2 mps 726 mmHg 68%
    20:00 +2°C° 0 mm 2 mps 727 mmHg 73%
    21:00 +3°C° 0 mm 1 mps 727 mmHg 74%
    22:00 +3°C° 0 mm 1 mps 727 mmHg 74%
    23:00 +3°C° 0 mm 1 mps 727 mmHg 75%

    Tomorrow, 18 November, Sunday

    Time Temperature Precipitation Wind Pressure Humidity
    00:00 +3°C° 0 mm 1 mps 727 mmHg 75%
    01:00 +3°C° 0 mm 1 mps 727 mmHg 75%
    02:00 +3°C° 0 mm 1 mps 726 mmHg 75%
    03:00 +3°C° 0 mm 1 mps 726 mmHg 75%
    04:00 +3°C° 0 mm 1 mps 726 mmHg 75%
    05:00 +3°C° 0 mm 1 mps 725 mmHg 75%
    06:00 +3°C° 0 mm 1 mps 725 mmHg 74%
    07:00 +3°C° 0 mm 1 mps 725 mmHg 73%
    08:00 +4°C° 0 mm 1 mps 725 mmHg 72%
    09:00 +6°C° 0 mm 1 mps 725 mmHg 65%
    10:00 +6°C° 0 mm 2 mps 725 mmHg 58%
    11:00 +8°C° 0 mm 2 mps 725 mmHg 52%
    12:00 +9°C° 0 mm 2 mps 724 mmHg 51%
    13:00 +10°C° 0 mm 2 mps 723 mmHg 50%
    14:00 +10°C° 0 mm 2 mps 723 mmHg 48%
    15:00 +9°C° 0.2 mm 2 mps 722 mmHg 56%
    16:00 +9°C° 0.2 mm 1 mps 722 mmHg 63%
    17:00 +8°C° 0.2 mm 1 mps 721 mmHg 71%
    18:00 +8°C° 0.6 mm 1 mps 721 mmHg 74%
    19:00 +7°C° 0.6 mm 1 mps 720 mmHg 78%
    20:00 +7°C° 0.6 mm 1 mps 720 mmHg 82%
    21:00 +7°C° 1.1 mm 1 mps 719 mmHg 83%
    22:00 +7°C° 1.1 mm 1 mps 719 mmHg 84%
    23:00 +6°C° 1.1 mm 1 mps 719 mmHg 85%

    Day after tomorrow, 19 November, Monday

    Time Temperature Precipitation Wind Pressure Humidity
    00:00 +6°C° 0.9 mm 1 mps 718 mmHg 86%
    01:00 +6°C° 0.9 mm 1 mps 718 mmHg 87%
    02:00 +6°C° 0.9 mm 1 mps 718 mmHg 87%
    03:00 +6°C° 0.4 mm 1 mps 717 mmHg 87%
    04:00 +6°C° 0.4 mm 1 mps 717 mmHg 87%
    05:00 +6°C° 0.4 mm 1 mps 717 mmHg 87%
    06:00 +6°C° 0.1 mm 1 mps 717 mmHg 87%
    07:00 +6°C° 0.1 mm 1 mps 717 mmHg 86%
    08:00 +6°C° 0.1 mm 1 mps 717 mmHg 86%
    09:00 +8°C° 0 mm 1 mps 717 mmHg 82%
    10:00 +9°C° 0 mm 1 mps 717 mmHg 78%
    11:00 +11°C° 0 mm 1 mps 717 mmHg 74%
    12:00 +11°C° 0 mm 1 mps 717 mmHg 73%
    13:00 +12°C° 0 mm 1 mps 717 mmHg 72%
    14:00 +12°C° 0 mm 1 mps 717 mmHg 71%
    15:00 +11°C° 0 mm 1 mps 717 mmHg 75%
    16:00 +10°C° 0 mm 1 mps 717 mmHg 78%
    17:00 +10°C° 0 mm 1 mps 717 mmHg 82%
    18:00 +9°C° 0 mm 1 mps 718 mmHg 84%
    19:00 +9°C° 0 mm 1 mps 718 mmHg 86%
    20:00 +8°C° 0 mm 1 mps 718 mmHg 88%
    21:00 +8°C° 0 mm 1 mps 719 mmHg 89%
    22:00 +8°C° 0 mm 1 mps 719 mmHg 90%
    23:00 +7°C° 0 mm 2 mps 719 mmHg 91%

    20 November, Tuesday

    Time Temperature Precipitation Wind Pressure Humidity
    00:00 +7°C° 0 mm 2 mps 719 mmHg 92%
    01:00 +7°C° 0 mm 2 mps 719 mmHg 92%
    02:00 +7°C° 0 mm 2 mps 719 mmHg 92%
    03:00 +7°C° 0.3 mm 2 mps 719 mmHg 91%
    04:00 +7°C° 0.3 mm 2 mps 719 mmHg 91%
    05:00 +8°C° 0.3 mm 2 mps 718 mmHg 90%
    06:00 +8°C° 0.2 mm 2 mps 718 mmHg 90%
    07:00 +8°C° 0.2 mm 3 mps 718 mmHg 89%
    08:00 +9°C° 0.2 mm 3 mps 718 mmHg 89%
    09:00 +10°C° 0.1 mm 4 mps 718 mmHg 85%
    10:00 +11°C° 0.1 mm 4 mps 718 mmHg 82%
    11:00 +13°C° 0.1 mm 5 mps 718 mmHg 79%
    12:00 +13°C° 0.1 mm 5 mps 717 mmHg 78%
    13:00 +13°C° 0.1 mm 5 mps 717 mmHg 78%
    14:00 +14°C° 0.1 mm 5 mps 716 mmHg 77%
    15:00 +13°C° 0 mm 4 mps 716 mmHg 80%
    16:00 +13°C° 0 mm 4 mps 715 mmHg 82%
    17:00 +12°C° 0 mm 3 mps 715 mmHg 85%
    18:00 +12°C° 0 mm 3 mps 715 mmHg 86%
    19:00 +12°C° 0 mm 3 mps 715 mmHg 88%
    20:00 +12°C° 0 mm 3 mps 715 mmHg 89%
    21:00 +12°C° 0.1 mm 4 mps 715 mmHg 89%
    22:00 +12°C° 0.1 mm 4 mps 715 mmHg 89%
    23:00 +12°C° 0.1 mm 4 mps 715 mmHg 90%

    21 November, Wednesday

    Time Temperature Precipitation Wind Pressure Humidity
    00:00 +12°C° 0 mm 4 mps 714 mmHg 90%
    01:00 +12°C° 0 mm 3 mps 714 mmHg 91%
    02:00 +11°C° 0 mm 3 mps 714 mmHg 92%
    03:00 +11°C° 0 mm 3 mps 714 mmHg 93%
    04:00 +11°C° 0 mm 3 mps 714 mmHg 93%
    05:00 +12°C° 0 mm 2 mps 714 mmHg 94%
    06:00 +12°C° 0 mm 2 mps 714 mmHg 93%
    07:00 +12°C° 0 mm 2 mps 714 mmHg 93%
    08:00 +12°C° 0 mm 2 mps 715 mmHg 92%
    09:00 +13°C° 0.2 mm 2 mps 715 mmHg 87%
    10:00 +14°C° 0.2 mm 2 mps 716 mmHg 82%
    11:00 +15°C° 0.2 mm 2 mps 716 mmHg 78%
    12:00 +15°C° 0.1 mm 2 mps 716 mmHg 74%
    13:00 +15°C° 0.1 mm 2 mps 716 mmHg 71%
    14:00 +16°C° 0.1 mm 2 mps 716 mmHg 68%
    15:00 +15°C° 0 mm 1 mps 716 mmHg 72%
    16:00 +14°C° 0 mm 1 mps 717 mmHg 76%
    17:00 +13°C° 0 mm 1 mps 717 mmHg 81%
    18:00 +12°C° 0 mm 1 mps 717 mmHg 83%
    19:00 +11°C° 0 mm 1 mps 718 mmHg 85%
    20:00 +11°C° 0 mm 1 mps 718 mmHg 87%
    21:00 +11°C° 0 mm 1 mps 718 mmHg 87%
    22:00 +10°C° 0 mm 1 mps 719 mmHg 86%
    23:00 +10°C° 0 mm 1 mps 719 mmHg 86%

    22 November, Thursday

    Time Temperature Precipitation Wind Pressure Humidity
    00:00 +10°C° 0 mm 1 mps 719 mmHg 85%
    01:00 +9°C° 0 mm 1 mps 719 mmHg 84%
    02:00 +9°C° 0 mm 1 mps 719 mmHg 83%
    03:00 +9°C° 0 mm 1 mps 719 mmHg 82%
    04:00 +9°C° 0 mm 1 mps 719 mmHg 82%
    05:00 +9°C° 0 mm 1 mps 720 mmHg 81%
    06:00 +9°C° 0 mm 1 mps 720 mmHg 81%
    07:00 +9°C° 0 mm 1 mps 720 mmHg 80%
    08:00 +9°C° 0 mm 1 mps 721 mmHg 79%
    09:00 +11°C° 0 mm 1 mps 721 mmHg 72%
    10:00 +13°C° 0 mm 1 mps 721 mmHg 64%
    11:00 +16°C° 0 mm 1 mps 722 mmHg 56%
    12:00 +16°C° 0 mm 1 mps 721 mmHg 53%
    13:00 +18°C° 0 mm 1 mps 721 mmHg 50%
    14:00 +18°C° 0 mm 1 mps 721 mmHg 48%
    15:00 +16°C° 0 mm 1 mps 721 mmHg 54%
    16:00 +14°C° 0 mm 1 mps 721 mmHg 60%
    17:00 +13°C° 0 mm 1 mps 721 mmHg 65%
    18:00 +12°C° 0 mm 1 mps 721 mmHg 68%
    19:00 +12°C° 0 mm 1 mps 722 mmHg 70%
    20:00 +11°C° 0 mm 1 mps 722 mmHg 72%
    21:00 +11°C° 0 mm 1 mps 722 mmHg 73%
    22:00 +11°C° 0 mm 1 mps 723 mmHg 73%
    23:00 +11°C° 0 mm 1 mps 723 mmHg 74%
    Show more